Regional Weather Roundup
Issued by NWS Grand Forks, ND

Home | Current Version | Previous Version | Graphics & Text | Print | Product List | Glossary On
Versions: 1 2 3 4 5 6 7 8 9 10 11 12 13 14 15 16 17 18 19 20 21 22 23 24 25 26 27 28 29 30 31 32 33 34 35 36 37 38 39 40 41 42 43 44 45 46 47 48 49 50
000
ASUS43 KFGF 271010
RWRFGF
PRAIRIE TO PINES  WEATHER ROUNDUP
NATIONAL WEATHER SERVICE EASTERN NORTH DAKOTA/GRAND FORKS ND
500 AM CDT MON MAR 27 2017

 **SATELLITE DATA USED TO AUGMENT SKY COVER AT AUTOMATED STATIONS**
 *****  WEATHER ACROSS EASTERN NORTH DAKOTA  *****

CITY           SKY/WX    TMP DP  RH WIND       PRES   REMARKS
GRAND FORKS    FOG       38  38 100 CALM      29.96S VSB 1/4
GRAND FRKS AFB FOG       37  37 100 CALM      29.96S VSB 1/4
DEVILS LAKE    SNOW      31  31 100 SE6       29.92F VSB 1/2
FARGO          FAIR      33  32  96 E3        29.95S FOG
WAHPETON ARPT    N/A     34  32  93 E3        29.96R
$$

 ***** WEATHER ACROSS CENTRAL AND WESTERN NORTH DAKOTA  *****

CITY           SKY/WX    TMP DP  RH WIND       PRES   REMARKS
BISMARCK       FAIR      32  30  92 NE6       29.90F
MINOT          FAIR      34  31  88 CALM      29.86F
JAMESTOWN      FOG       29  28  96 CALM      29.92R VSB 1/4
MINOT AFB      FAIR      32  32 100 SW7       29.86S
GARRISON         N/A     34  31  88 CALM      29.87F
WILLISTON      MOCLDY    34  30  85 W3        29.89R
DICKINSON      FAIR      36  31  82 S6        29.85S
HETTINGER      FAIR      32  30  92 CALM      29.89F
$$

 *****  OTHER AIRPORT OBSERVATIONS IN OUR AREA  *****

CITY           SKY/WX    TMP DP  RH WIND       PRES   REMARKS
WALHALLA       NOT AVBL
GRAFTON AIRPOR FOG       32  32 100 CALM      29.98F VSB 1/4
VALLEY CITY AR FOG       32  32 100 CALM      29.94S VSB 1/4
CANDO          NOT AVBL
CAVALIER APRT  FOG       32  32 100 NW6       29.97R VSB<1/4
GWINNER        MOSUNNY   34  34 100 MISG      29.93S
SHEYENNE NWR     N/A     32  32 100 CALM      29.95S
ROLLA          CLOUDY    34  34 100 S8        29.89F FOG
 ***** THE ABOVE OBSERVATIONS ARE NON NWS ARE NOT QUALITY
       CONTROLLED AND MAY MIS-REPORT RAIN FOR SNOW...
$$

  *****  WEATHER ACROSS NORTHERN MINNESOTA  *****

CITY           SKY/WX    TMP DP  RH WIND       PRES   REMARKS
FLAG ISLAND    FAIR      28  27  93 CALM      29.95F
WARROAD        FOG       27  23  86 CALM      29.96S VSB 1
ROSEAU         FOG       28  25  86 NW5       29.96S VSB 1/4 WCI  23
HALLOCK        FOG       30  30 100 CALM      29.96S VSB 1/4
THF RVR FALLS    N/A     28  27  93 MISG        N/A
BAUDETTE       FOG       25  24  96 CALM      29.94S VSB 3/4
WASKISH        FAIR      27  27 100 CALM      29.95S
CROOKSTON      FOG       32  32 100 CALM      29.97S VSB<1/4
GREENBUSH NDAW   N/A     28  28 100 NE1         N/A
$$
  *****  WEATHER ACROSS CENTRAL AND WEST MINNESOTA  *****

CITY           SKY/WX    TMP DP  RH WIND       PRES   REMARKS
FOSSTON        FOG       28  27  93 E5        29.95S VSB 3/4 WCI  23
BEMIDJI        FAIR      32  31  98 NW3       29.94S
PARK RAPIDS    CLOUDY    35  30  82 CALM      29.93S
ELBOW LAKE     PTSUNNY   34  34  99 CALM      29.95S
WADENA         CLOUDY    32  30  93 CALM      29.94S FOG
DETROIT LAKES  FAIR      36  34  93 CALM      29.95S FOG
MOORHEAD       FAIR      34  34 100 CALM      29.96S FOG
FERGUS FALLS   FAIR      36  36 100 CALM      29.98S
MORRIS MN      FAIR      34  32  93 N3        29.94F FOG
STAPLES        MOCLDY    32  30  93 W3        29.95R
$$
  *****  WEATHER ELSEWHERE ACROSS MINNESOTA  *****

CITY           SKY/WX    TMP DP  RH WIND       PRES   REMARKS
DULUTH         CLOUDY    32  31  96 N6        29.91S
INTRNTL FALLS  FAIR      26  23  88 CALM      29.95R
ELY            CLOUDY    30  28  93 CALM      29.92R
CLOQUET        FAIR      30  30 100 CALM      29.92S
WHEATON        CLOUDY    32  30  93 SE5       29.97S
BRAINERD       MOCLDY    33  31  92 SW3       29.95R
HIBBING        CLOUDY    30  30 100 CALM      29.92S
ALEXANDRIA     MOCLDY    36  34  92 CALM      29.94F
SAINT CLOUD    CLOUDY    36  35  96 CALM      29.96R
MINNEAPOLIS    DRIZZLE   38  34  85 N6        29.96R
$$

  *****  WEATHER ACROSS SOUTH DAKOTA  *****

CITY           SKY/WX    TMP DP  RH WIND       PRES   REMARKS
SIOUX FALLS    CLOUDY    41  38  89 E3        29.95S
BROOKINGS      FOG       33  32  96 CALM      29.94S VSB 1/2
WATERTOWN      CLOUDY    35  34  96 CALM      29.92F
HURON          CLOUDY    38  36  92 CALM      29.93F
SISSETON         N/A     34  34 100 SE6       29.93S
ABERDEEN       CLOUDY    35  33  92 CALM      29.93S
MITCHELL       CLOUDY    31  31 100 CALM      29.95F FOG
PIERRE         CLOUDY    40  38  93 CALM      29.91F
MOBRIDGE       FAIR      36  33  89 SE3       29.89S
RAPID CITY     FOG       29  28  96 CALM      29.89R VSB 1/4
$$

  *****  SOME WEATHER IN NEARBY STATES *****

CITY           SKY/WX    TMP DP  RH WIND       PRES   REMARKS
GLASGOW MT     MOCLDY    35  24  64 E10       29.84F
GREAT FALLS MT CLOUDY    39  26  59 SW7       29.79S
CHEYENNE WY    FAIR      32  30  92 W9        29.92F WCI  24
SCOTTSBLUFF NE FAIR      27  24  89 CALM      29.92F
OMAHA NE       LGT RAIN  46  41  82 N7        29.93S
DES MOINES IA  DRIZZLE   44  43  96 N5        29.92R
DAVENPORT IA   CLOUDY    46  46 100 NW5       29.90S FOG
CHICAGO IL     CLOUDY    50  48  93 NW6       29.89R FOG
EAU CLAIRE WI  CLOUDY    38  35  89 CALM      29.93R
LA CROSSE WI   CLOUDY    42  40  92 CALM      29.92R
$$

  *****  SOME NATIONAL WEATHER *****

CITY           SKY/WX    TMP DP  RH WIND       PRES   REMARKS
LA GUARDIA NY  DRIZZLE   40  37  89 NE10      30.16F FOG
RALEIGH NC     CLOUDY    62  55  77 SW9       30.12R
ATLANTA GA     FAIR      60  56  86 S3        30.06R
NEW ORLEANS LA MOCLDY    71  68  90 S7        29.97S
OKLAHOMA CITY  CLOUDY    52  48  86 NW23      29.82R
ALBUQUERQUE NM FAIR      39  23  52 E7        30.01F
SALT LAKE CITY MOCLDY    49  33  54 E3        29.88F
LOS ANGELES CA FAIR      55  52  89 NE3       30.02F
BOISE ID       CLOUDY    43  40  89 SE8       29.89F
SEATTLE WA     CLOUDY    45  42  89 S12       29.89R
$$

*** WEATHER ACROSS MANITOBA...SASKATCHEWAN AND ONTARIO ***
                ***ONTARIO***

CITY           SKY/WX    TMP DP  RH WIND       PRES   REMARKS
GERALDTON      PTCLDY    23  23 100 SW2       29.86S
THUNDER BAY    FOG       30  30 100 SW7       29.91R VSB 5/8 WCI  23
SIOUX LOOKOUT  PTCLDY    25  23  93 N3        29.93S
TORONTO        CLOUDY    43  43 100 SE3       29.86R FOG
BIG TROUT LK   CLOUDY    28  23  80 NW9       29.95R WCI  20
PICKLE LAKE    NOT AVBL
DRYDEN         CLEAR     28  28 100 CALM      29.94S
KENORA         CLEAR     32  30  93 E6        29.95S
$$
                *** MANITOBA***

CITY           SKY/WX    TMP DP  RH WIND       PRES   REMARKS
BRANDON        CLOUDY    34  32  93 NE10      29.92S
DAUPHIN        CLOUDY    32  32 100 NE6       29.98R
ISLAND LAKE    FLURRIES  25  19  80 NW7       30.03R WCI  17
PILOT MOUND    NOT AVBL
THE PAS        MOCLDY    16  12  86 VRB2      30.07R
THOMPSON       FLURRIES  18  14  86 N8        30.11R WCI   7
WINNIPEG       MOCLDY    32  28  86 VRB2      29.98F
LYNN LAKE      MOCLDY     7   3  85 N3        30.12R
CHURCHILL      FLURRIES  10   7  85 N15       30.13R WCI  -6
GILLAM         FLURRIES   3   0  85 NW8       30.08R WCI -10
$$
                ***SASKATCHEWAN***

CITY           SKY/WX    TMP DP  RH WIND       PRES   REMARKS
ESTEVAN        CLEAR     28  28 100 E2        29.88S
KINDERSLEY     FOG       28  28 100 E10       29.85F VSB 1/4 WCI  19
LLOYDMINSTER   MOCLDY    28  28 100 SE14      29.87S WCI  17
PRINCE ALBERT  PTCLDY    18  16  93 E6        29.99F WCI   9
REGINA         FOG       28  28 100 N5        29.89S VSB 3/8 WCI  23
YORKTON        CLOUDY    30  30 100 NE7       29.92R FOG     WCI  23
N. BATTLEFORD  CLOUDY    27 N/A N/A SE15G22   29.94R WCI  15
LA RONGE       PTCLDY     9   5  85 N2        30.04R FOG
SASKATOON      FOG       27  25  93 E7        29.97R VSB 3/4 WCI  19
SWIFT CURRENT  PTCLDY    27  27 100 E10       29.83S FOG     WCI  17
$$
NOTE: THESE ARE AUTOMATED STATIONS WITH LIMITED QUALITY CONTROL
      "FAIR" INDICATES FEW OR NO CLOUDS BELOW 12,000 FEET WITH NO
      SIGNIFICANT WEATHER AND/OR OBSTRUCTIONS TO VISIBILITY.
      SKY/WX - SKY CONDITION AND SIGNIFICANT WEATHER.
      TMP - AIR TEMPERATURE.    DP   - DEWPOINT TEMPERATURE.
      RH  - RELATIVE HUMIDITY.  PRES - PRESSURE.
      HX  - HEAT INDEX.         WCI  - WIND CHILL INDEX.
$



USA.gov is the U.S. government's official web portal to all federal, state and local government web resources and services.